GW0422 Weather Reports


time (UTC)temp
F
wind
direction
speed
knots
gust
knots
rain 1hr
in
rain 24hr
in
rain mn
in
humidity
%
barometer
mb
20260502210416 55 350 0.0 0.0 0.01 0.01 0.01 83 1012.1
20260502205410 56 350 0.0 1.7 0.01 0.01 0.01 82 1012.1
20260502204413 56 350 0.0 0.0 0.00 0.00 0.00 81 1012.1
20260502203414 56 350 0.0 2.6 0.00 0.00 0.00 79 1012.1
20260502202915 56 350 0.0 2.6 0.00 0.00 0.00 78 1012.0
20260502202415 56 350 0.0 2.6 0.00 0.00 0.00 78 1012.1
20260502201416 57 350 0.0 0.9 0.00 0.00 0.00 77 1012.2
20260502200401 57 350 0.0 0.9 0.00 0.00 0.00 76 1012.2
20260502195404 58 350 0.0 1.7 0.00 0.00 0.00 74 1012.2
20260502194411 58 350 0.0 0.9 0.00 0.00 0.00 73 1012.3
20260502192917 58 350 0.0 2.6 0.00 0.00 0.00 72 1012.1
20260502192416 59 350 0.0 2.6 0.00 0.00 0.00 72 1012.0
20260502191859 59 350 0.0 2.6 0.00 0.00 0.00 71 1012.0
20260502190904 59 350 0.0 2.6 0.00 0.00 0.00 70 1012.0
20260502190359 59 350 0.9 3.5 0.00 0.00 0.00 70 1012.1
20260502184909 59 17 0.0 2.6 0.00 0.00 0.00 69 1012.0
20260502183912 60 12 0.0 2.6 0.00 0.00 0.00 68 1012.1
20260502182918 60 316 0.0 2.6 0.00 0.00 0.00 68 1012.2
20260502182418 60 337 0.0 3.5 0.00 0.00 0.00 68 1012.3
20260502181856 60 30 0.0 3.5 0.00 0.00 0.00 67 1012.4
20260502180902 60 355 0.0 4.3 0.00 0.00 0.00 67 1012.6
20260502163903 63 36 0.9 3.5 0.00 0.00 0.00 63 1012.9
20260502162909 64 350 0.9 3.5 0.00 0.00 0.00 62 1013.0
20260502162405 64 328 1.7 3.5 0.00 0.00 0.00 61 1013.1
20260502161413 65 336 0.0 2.6 0.00 0.00 0.00 58 1013.2
20260502160415 65 350 0.0 2.6 0.00 0.00 0.00 58 1013.4
20260502151405 65 42 0.0 3.5 0.00 0.00 0.00 60 1014.0
20260502150413 65 31 1.7 3.5 0.00 0.00 0.00 58 1014.1
20260502130407 61 110 0.9 7.0 0.00 0.00 0.00 64 1014.9
20260502123413 62 87 0.0 3.5 0.00 0.00 0.00 67 1015.6
20260502122415 61 40 1.7 5.2 0.00 0.00 0.00 68 1015.6
20260502121858 61 67 0.9 4.3 0.00 0.00 0.00 69 1016.0
20260502120904 60 231 0.9 6.1 0.00 0.00 0.00 69 1015.9
20260502115916 60 250 0.9 3.5 0.00 0.00 0.00 69 1015.9
20260502115400 60 170 1.7 5.2 0.00 0.00 0.00 68 1015.9
20260502114401 60 35 0.9 4.3 0.00 0.00 0.00 69 1016.2
20260502113413 60 196 2.6 5.2 0.00 0.00 0.00 67 1016.0
20260502112409 61 56 0.0 3.5 0.00 0.00 0.00 67 1016.5
20260502111416 61 72 0.0 5.2 0.00 0.00 0.00 70 1016.2
20260502110356 61 10 0.9 5.2 0.00 0.00 0.00 67 1016.0
20260502105359 61 316 0.9 4.3 0.00 0.00 0.00 67 1016.1
20260502104405 60 44 0.9 5.2 0.00 0.00 0.00 70 1016.4
20260502103409 60 136 0.9 7.0 0.00 0.00 0.00 71 1016.3
20260502102409 60 142 2.6 7.0 0.00 0.00 0.00 70 1016.4
20260502101413 59 50 0.9 5.2 0.00 0.00 0.00 71 1016.4
20260502100414 59 197 0.9 3.5 0.00 0.00 0.00 72 1016.3
20260502090911 56 183 0.9 6.1 0.00 0.00 0.00 75 1016.4
20260502090408 57 141 0.9 5.2 0.00 0.00 0.00 75 1016.5
20260502071411 52 134 0.0 6.1 0.00 0.00 0.00 85 1016.6
20260502070530 51 183 0.0 2.6 0.00 0.00 0.00 87 1016.2
20260502044412 50 187 0.0 2.6 0.00 0.00 0.00 91 1016.7
20260502043420 50 153 0.0 0.9 0.00 0.00 0.00 91 1016.7
20260502042412 50 153 0.0 0.0 0.00 0.00 0.00 91 1016.6
20260502041415 50 153 0.0 0.0 0.00 0.00 0.00 91 1016.6
20260502040913 50 153 0.0 0.0 0.00 0.00 0.00 91 1016.7
20260502040411 50 153 0.0 0.0 0.00 0.00 0.00 91 1016.7
20260502034917 49 153 0.0 3.5 0.00 0.00 0.00 92 1016.8
20260502033921 49 158 0.0 0.9 0.00 0.00 0.00 92 1016.8
20260502032923 48 158 0.0 1.7 0.00 0.00 0.00 92 1016.7
20260502032406 48 158 0.0 0.0 0.00 0.00 0.00 92 1016.7
20260502031408 47 158 0.0 0.0 0.00 0.00 0.00 91 1016.7
20260502030412 47 158 0.0 0.0 0.00 0.00 0.00 91 1016.8
20260502025412 47 158 0.0 0.0 0.00 0.00 0.00 90 1016.7
20260502024420 47 158 0.0 0.0 0.00 0.00 0.00 90 1016.9
20260502023425 47 158 0.0 0.0 0.00 0.00 0.00 89 1016.9
20260502022906 47 158 0.0 0.0 0.00 0.00 0.00 89 1016.9
20260502021908 47 158 0.0 0.0 0.00 0.00 0.00 87 1016.8
20260502020911 48 158 0.0 0.0 0.00 0.00 0.00 87 1016.9
20260502015919 49 158 0.0 0.0 0.00 0.00 0.00 87 1016.9
20260502014922 49 158 0.0 1.7 0.00 0.00 0.00 87 1016.8
20260502013923 50 290 0.0 1.7 0.00 0.00 0.00 87 1017.1
20260502012911 51 142 0.0 1.7 0.00 0.00 0.00 87 1017.0
20260502011920 51 142 0.0 0.9 0.00 0.00 0.00 88 1017.3
20260502010949 51 24 0.0 2.6 0.00 0.00 0.00 88 1017.4
20260502005906 51 360 0.0 1.7 0.00 0.00 0.00 88 1017.5
20260502004909 51 360 0.0 1.7 0.00 0.00 0.00 87 1017.5
20260502003912 52 360 0.0 1.7 0.00 0.00 0.00 87 1017.6
20260502002925 52 319 0.0 2.6 0.00 0.00 0.00 87 1017.7
20260502001905 52 133 0.0 1.7 0.00 0.00 0.00 87 1017.8
20260502000910 53 194 0.0 0.0 0.00 0.00 0.00 87 1017.8
20260501235914 53 194 0.0 2.6 0.00 0.00 0.00 87 1017.6
20260501234921 53 185 0.0 1.7 0.00 0.00 0.00 87 1017.8
20260501234412 53 328 0.0 0.9 0.00 0.00 0.00 87 1017.8
20260501233413 53 63 0.0 0.9 0.00 0.00 0.00 87 1017.8
20260501232913 53 101 0.0 1.7 0.00 0.00 0.00 87 1017.7
20260501232414 53 101 0.0 2.6 0.00 0.00 0.00 87 1017.9
20260501231559 54 167 0.0 1.7 0.00 0.00 0.00 86 1017.8
20260501230906 54 212 0.0 2.6 0.00 0.00 0.00 86 1017.8
20260501225936 54 70 0.0 3.5 0.00 0.00 0.00 86 1017.7
20260501224909 54 106 0.0 2.6 0.00 0.00 0.00 86 1017.8
20260501223910 54 10 0.0 2.6 0.00 0.00 0.00 86 1017.7
20260501222913 54 99 0.0 3.5 0.00 0.00 0.00 85 1017.8
20260501222411 54 78 0.0 1.7 0.00 0.00 0.00 85 1017.8
20260501221418 54 316 0.0 2.6 0.00 0.00 0.00 85 1017.8
20260501220420 54 88 0.0 1.7 0.00 0.00 0.00 85 1017.8
20260501215415 55 87 0.9 3.5 0.00 0.00 0.00 85 1017.8
20260501214907 55 145 0.0 6.1 0.00 0.00 0.00 84 1017.9
20260501213913 55 37 0.0 3.5 0.00 0.00 0.00 84 1017.9
20260501212914 55 114 0.0 5.2 0.00 0.00 0.00 83 1017.8
20260501211915 55 271 0.9 4.3 0.00 0.00 0.00 82 1017.7
20260501210917 55 93 0.9 4.3 0.00 0.00 0.00 81 1017.7